sat.trackr.live / text

‹ back to catalog

STARLINK-6194

NORAD 57077 · 2023-088AF

PAYLOAD ACTIVE UNKNOWN

§ Identity

Operator
Country
US
Launch date
2023-06-22
Launch site
AFWTR
Launch vehicle
Mass (kg)
RCS (m²)

Purposes: comms

External: N2YO · Heavens-Above · Gunter

§ Orbital elements

Epoch: 2026-09-20T04:45:04.213152Z

Period
94.27 min
Inclination
43.0036°
Eccentricity
0.0001158
Mean motion
15.27575648 rev/d
Perigee alt
482.3 km
Apogee alt
483.9 km
Semi-major
6,861.2 km
B*
-1.8496e-6
RAAN
78.0100°
Arg perigee
265.2159°
Mean anomaly
94.8561°
Rev number
18,040

§ Raw data

STARLINK-61941 57077U 23088AF  26263.19796543 -.00000313  00000+0 -18496-5 0  99912 57077  43.0036  78.0100 0001158 265.2159  94.8561 15.27575648180401

JSON: /api/v1/satellites/57077 · /tle

For live sub-satellite position, see the globe view (requires WebGL).

§ Visibility from observer

Set your observer location to see the next 7 days of passes ≥ 10°. The values pass through the URL so the page stays shareable.

No JS? Fill the form by hand. The geolocation button needs JavaScript.